Torna al catalogo

THORAD AGENA D DEB

AttivoPO
NORAD 4856·DEBRIS·🇺🇸 United States

Lanciato Apr 8, 1970 da Vandenberg Space Force Base

Loading…

Prossimi Passaggi (prossime 24 ore)

TLE

AggiornatoSource: Space-Track

Epoca: Sep 14, 2026, 01:52 UTC

1 04856U 70025EL  26257.07842887  .00000329  00000-0  19061-3 0  9997
2 04856  99.7487  28.5105 0153153  77.3499 284.4744 14.10601678882945

Traccia THORAD AGENA D DEB in tempo reale con AllMySat

Download on the App Store